EW2835 Weather Reports


Display with metric or nautical units.
time (UTC)temp
F
wind
direction
speed
MPH
gust
MPH
rain 1hr
in
rain 24hr
in
rain mn
in
humidity
%
barometer
mb
20260902073021 64 218 2.0 6.0 0.00 0.00 0.00 80 1019.9
20260902071525 63 207 0.0 4.0 0.00 0.00 0.00 83 1019.9
20260902070019 62 187 0.0 6.0 0.00 0.00 0.00 86 1019.9
20260902064510 60 147 0.0 2.0 0.00 0.00 0.00 91 1019.9
20260902063013 58 173 0.0 3.0 0.00 0.00 0.00 94 1019.9
20260902061505 57 178 0.0 2.0 0.00 0.00 0.00 94 1020.0
20260902060014 57 156 0.0 3.0 0.00 0.00 0.00 95 1019.9
20260902054604 56 195 0.0 0.0 0.00 0.00 0.00 95 1020.0
20260902053057 56 155 0.0 2.0 0.00 0.00 0.00 96 1020.0
20260902051556 54 182 0.0 2.0 0.00 0.00 0.00 96 1020.0
20260902050058 52 196 0.0 1.0 0.00 0.00 0.00 95 1020.0
20260902044545 52 204 0.0 0.0 0.00 0.00 0.00 95 1020.0
20260902043042 52 204 0.0 0.0 0.00 0.00 0.00 95 1020.0
20260902041550 51 202 0.0 0.0 0.00 0.00 0.00 94 1019.8
20260902040038 51 196 0.0 0.0 0.00 0.00 0.00 94 1019.6
20260902034536 52 196 0.0 0.0 0.00 0.01 0.00 94 1019.4
20260902033041 52 196 0.0 0.0 0.00 0.01 0.00 94 1019.1
20260902031535 52 196 0.0 0.0 0.00 0.01 0.00 93 1019.1
20260902030031 53 196 0.0 0.0 0.00 0.01 0.00 93 1019.2
20260902024529 53 196 0.0 0.0 0.00 0.02 0.00 93 1019.2
20260902023026 54 196 0.0 0.0 0.00 0.02 0.00 93 1019.3
20260902021532 54 196 0.0 0.0 0.00 0.02 0.00 93 1019.4
20260902020023 55 196 0.0 0.0 0.00 0.02 0.00 93 1019.4
20260902014533 55 196 0.0 0.0 0.00 0.02 0.00 93 1019.4
20260902013020 55 196 0.0 0.0 0.00 0.02 0.00 93 1019.4
20260902011532 56 201 0.0 0.0 0.00 0.02 0.00 92 1019.4
20260902010022 56 201 0.0 0.0 0.00 0.02 0.00 92 1019.3
20260902004618 57 201 0.0 0.0 0.00 0.03 0.00 92 1019.2
20260902003012 57 201 0.0 1.0 0.00 0.03 0.00 92 1019.2
20260902001513 57 201 0.0 0.0 0.00 0.03 0.00 91 1019.1
20260902000009 58 202 0.0 1.0 0.00 0.03 0.00 90 1019.0
20260901234518 58 201 0.0 0.0 0.00 0.03 0.00 90 1019.0
20260901233004 59 201 0.0 0.0 0.00 0.03 0.00 89 1018.9
20260901231505 59 254 0.0 1.0 0.00 0.03 0.00 89 1018.9
20260901230002 59 258 0.0 0.0 0.00 0.03 0.00 88 1018.9
20260901224559 60 254 0.0 2.0 0.00 0.03 0.00 88 1018.9
20260901223112 60 202 0.0 1.0 0.00 0.03 0.00 87 1018.9
20260901221554 61 267 0.0 2.0 0.00 0.03 0.00 86 1018.8
20260901220059 61 296 0.0 4.0 0.00 0.03 0.00 86 1018.7
20260901214550 61 239 0.0 2.0 0.00 0.03 0.03 84 1018.6
20260901213050 62 297 0.0 1.0 0.00 0.03 0.03 83 1018.6
20260901211554 62 297 0.0 4.0 0.00 0.03 0.03 83 1018.5
20260901210057 63 177 0.0 2.0 0.00 0.03 0.03 81 1018.5
20260901204549 63 271 0.0 3.0 0.00 0.03 0.03 80 1018.4
20260901203050 63 243 0.0 6.0 0.00 0.03 0.03 79 1018.5
20260901201543 64 292 0.0 5.0 0.00 0.03 0.03 77 1018.4
20260901200054 65 263 0.0 3.0 0.00 0.03 0.03 76 1018.4
20260901194559 65 333 0.0 5.0 0.00 0.06 0.03 74 1018.2
20260901193040 66 236 0.0 6.0 0.00 0.06 0.03 72 1018.2
20260901191538 66 279 1.0 6.0 0.00 0.06 0.03 71 1018.1
20260901190042 66 282 0.0 6.0 0.00 0.06 0.03 71 1018.1
20260901184536 67 295 1.0 7.0 0.00 0.07 0.03 70 1017.9
20260901183041 67 276 4.0 9.0 0.00 0.07 0.03 66 1017.7
20260901181536 68 323 2.0 4.0 0.00 0.07 0.03 66 1017.5
20260901180030 68 259 2.0 7.0 0.00 0.07 0.03 67 1017.3
20260901174530 68 269 2.0 7.0 0.00 0.08 0.03 67 1017.1
20260901173029 68 310 1.0 4.0 0.00 0.08 0.03 66 1016.9
20260901171529 69 115 0.0 3.0 0.00 0.08 0.03 65 1016.9
20260901170028 69 234 0.0 2.0 0.00 0.08 0.03 64 1016.8
20260901164527 70 198 1.0 5.0 0.00 0.08 0.03 64 1016.7
20260901163026 70 266 0.0 8.0 0.00 0.08 0.03 62 1016.8
20260901160058 71 250 3.0 8.0 0.00 0.08 0.03 58 1016.7
20260901154553 71 266 2.0 9.0 0.00 0.08 0.03 57 1016.7
20260901153053 72 187 2.0 7.0 0.00 0.08 0.03 59 1016.6
20260901151554 72 201 2.0 6.0 0.00 0.08 0.03 59 1016.6
20260901150051 72 255 2.0 12.0 0.00 0.08 0.03 60 1016.6
20260901144550 72 10 1.0 6.0 0.00 0.08 0.03 62 1016.7
20260901143050 72 292 1.0 7.0 0.00 0.08 0.03 61 1016.6
20260901141557 73 275 2.0 15.0 0.00 0.08 0.03 58 1016.6
20260901140051 74 215 2.0 11.0 0.00 0.08 0.03 57 1016.6
20260901134547 75 248 3.0 7.0 0.00 0.08 0.03 56 1016.7
20260901133047 75 284 1.0 11.0 0.00 0.08 0.03 59 1016.8
20260901131545 72 356 0.0 6.0 0.00 0.08 0.03 63 1016.9
20260901130045 76 195 2.0 10.0 0.00 0.08 0.03 56 1016.8
20260901124551 75 281 1.0 8.0 0.00 0.08 0.03 60 1016.9
20260901123043 74 308 2.0 6.0 0.00 0.08 0.03 61 1016.9
20260901121546 74 158 3.0 9.0 0.00 0.08 0.03 59 1017.0
20260901120037 74 211 3.0 15.0 0.00 0.08 0.03 60 1017.2
20260901114538 72 231 2.0 12.0 0.00 0.08 0.03 64 1017.1
20260901113041 71 249 3.0 12.0 0.00 0.08 0.03 65 1017.2
20260901111537 73 297 2.0 8.0 0.00 0.08 0.03 62 1017.1
20260901110039 71 262 2.0 8.0 0.00 0.08 0.03 67 1017.1
20260901104530 72 296 2.0 8.0 0.00 0.08 0.03 64 1017.1
20260901103028 71 311 4.0 10.0 0.00 0.08 0.03 66 1017.2
20260901101527 69 259 2.0 10.0 0.00 0.08 0.03 70 1017.2
20260901100022 68 263 3.0 7.0 0.00 0.08 0.03 73 1017.1
20260901094527 68 277 3.0 8.0 0.00 0.08 0.03 73 1017.1
20260901093020 68 296 1.0 7.0 0.00 0.08 0.03 75 1017.0
20260901091524 69 304 1.0 7.0 0.00 0.08 0.03 76 1016.8
20260901090014 67 242 1.0 9.0 0.00 0.08 0.03 80 1016.7
20260901084510 64 278 1.0 9.0 0.00 0.09 0.03 87 1016.7
20260901083006 63 313 1.0 7.0 0.00 0.09 0.03 90 1016.7
20260901081506 63 238 0.0 5.0 0.00 0.09 0.03 91 1016.5
20260901080048 63 263 2.0 7.0 0.00 0.09 0.03 90 1016.3
20260901074545 62 153 1.0 10.0 0.00 0.17 0.03 93 1016.2